Temp
-5 -5 -5 -5 -5 -5 -4 -4 -4 -4 -4 -4 -4 -4 -4 -4 -3 -3 -3 -4 -4 -4 -4 -4 -4 -4 -4 -4 -4 -4 -4 -4 -5 -5 -4 -4 -4 -3 -4 -4 -4 -5 -6 -8 -7 -5 -6
-5 -5 -5 -5 -5 -5 -5 -5 -5 -4 -4 -4 -4 -4 -4 -4 -4 -4 -4 -4 -4 -4 -4 -4 -4 -5 -5 -5 -4 -4 -4 -4 -5 -5 -5 -5 -4 -4 -4 -4 -4 -4 -5 -7 -7 -6 -7
-6 -6 -6 -6 -6 -5 -5 -5 -5 -5 -5 -5 -5 -5 -5 -5 -5 -5 -4 -4 -4 -4 -4 -4 -4 -5 -5 -5 -5 -4 -4 -5 -5 -5 -5 -4 -4 -5 -5 -5 -5 -5 -5 -7 -7 -7 -7
-7 -6 -6 -6 -6 -6 -6 -5 -5 -5 -5 -5 -5 -5 -5 -5 -5 -5 -5 -5 -4 -5 -4 -4 -4 -5 -5 -5 -5 -5 -5 -5 -5 -5 -5 -5 -5 -5 -5 -5 -5 -5 -5 -7 -7 -7 -7
-7 -7 -7 -6 -6 -6 -6 -6 -6 -5 -5 -5 -6 -6 -6 -6 -6 -6 -6 -5 -5 -5 -5 -5 -5 -5 -5 -5 -6 -5 -5 -5 -5 -5 -5 -5 -5 -5 -5 -5 -6 -6 -7 -7 -6 -7 -7
-7 -7 -7 -7 -6 -6 -6 -6 -6 -6 -5 -6 -6 -6 -6 -6 -6 -6 -6 -6 -6 -5 -5 -5 -5 -5 -5 -5 -5 -5 -5 -5 -5 -5 -5 -5 -5 -5 -5 -6 -7 -7 -7 -7 -7 -7 -8
-8 -8 -7 -7 -7 -7 -7 -6 -6 -6 -6 -6 -6 -6 -6 -6 -6 -6 -6 -6 -6 -6 -6 -6 -5 -5 -5 -5 -5 -6 -5 -5 -5 -5 -5 -5 -6 -5 -6 -8 -8 -7 -7 -7 -7 -7 -7
-9 -8 -8 -8 -7 -7 -7 -7 -6 -6 -6 -6 -6 -6 -6 -6 -7 -7 -6 -6 -6 -6 -6 -6 -6 -6 -5 -5 -5 -5 -5 -5 -5 -5 -5 -5 -5 -6 -7 -8 -8 -7 -7 -7 -8 -8 -7
-9 -9 -9 -8 -8 -7 -7 -7 -7 -7 -6 -6 -6 -6 -7 -7 -7 -7 -6 -7 -7 -7 -6 -7 -7 -6 -6 -5 -5 -5 -5 -5 -5 -5 -5 -5 -6 -6 -6 -8 -7 -8 -8 -8 -8 -8 -8
-10 -9 -9 -8 -8 -7 -7 -7 -7 -7 -7 -7 -7 -7 -7 -7 -7 -7 -7 -7 -7 -7 -7 -7 -7 -7 -6 -6 -6 -5 -5 -6 -5 -5 -6 -6 -6 -6 -6 -7 -8 -7 -8 -8 -8 -8 -8
-10 -10 -9 -8 -8 -8 -8 -8 -8 -7 -7 -7 -7 -7 -7 -7 -7 -7 -7 -7 -7 -7 -7 -8 -8 -7 -7 -6 -6 -6 -5 -5 -6 -6 -5 -6 -6 -6 -6 -6 -8 -8 -8 -8 -8 -9 -9
-10 -9 -9 -9 -8 -8 -8 -8 -8 -8 -7 -7 -7 -7 -8 -8 -8 -8 -7 -7 -7 -8 -8 -9 -9 -8 -8 -7 -7 -6 -6 -5 -6 -6 -6 -6 -6 -6 -6 -8 -8 -9 -8 -9 -9 -9 -8
-10 -9 -9 -9 -9 -8 -8 -8 -8 -8 -8 -7 -8 -8 -8 -8 -8 -8 -8 -8 -8 -8 -9 -9 -9 -9 -9 -8 -8 -7 -6 -6 -5 -6 -6 -6 -6 -6 -7 -8 -8 -8 -8 -9 -9 -8 -7
-10 -9 -9 -9 -9 -9 -9 -9 -9 -8 -8 -8 -8 -8 -8 -8 -8 -8 -8 -8 -8 -9 -10 -9 -9 -10 -9 -8 -9 -8 -7 -6 -6 -6 -6 -6 -6 -6 -6 -7 -7 -8 -8 -9 -9 -8 -7
-10 -10 -10 -9 -9 -9 -9 -9 -9 -9 -9 -9 -9 -9 -9 -9 -9 -9 -9 -9 -10 -10 -10 -10 -11 -11 -10 -9 -9 -8 -7 -7 -6 -6 -6 -6 -6 -6 -7 -7 -8 -8 -8 -9 -9 -7 -7
-10 -10 -10 -10 -10 -10 -10 -10 -9 -9 -9 -9 -9 -9 -9 -9 -9 -9 -9 -10 -10 -11 -11 -11 -11 -11 -11 -10 -9 -9 -8 -7 -7 -6 -6 -6 -6 -7 -7 -8 -8 -7 -8 -8 -7 -7 -7
-11 -11 -11 -10 -10 -10 -10 -10 -10 -10 -10 -10 -9 -9 -9 -9 -9 -9 -9 -10 -11 -11 -11 -11 -11 -11 -11 -11 -9 -10 -8 -8 -7 -7 -6 -6 -7 -7 -7 -8 -8 -9 -8 -8 -8 -7 -7
-11 -11 -11 -11 -10 -10 -10 -10 -10 -10 -10 -10 -10 -9 -9 -9 -9 -10 -10 -10 -10 -10 -11 -11 -11 -11 -11 -11 -10 -9 -9 -9 -8 -7 -7 -6 -7 -7 -7 -8 -8 -9 -8 -8 -7 -6 -7
-11 -11 -11 -11 -11 -11 -11 -11 -11 -11 -11 -10 -10 -10 -9 -9 -10 -10 -10 -11 -11 -11 -11 -11 -11 -11 -11 -11 -10 -9 -8 -9 -9 -8 -7 -7 -7 -8 -7 -7 -8 -8 -8 -8 -8 -7 -6
-11 -11 -11 -11 -11 -11 -11 -11 -11 -11 -11 -11 -11 -10 -10 -9 -10 -10 -11 -12 -12 -12 -11 -12 -12 -11 -11 -11 -11 -9 -8 -8 -9 -8 -8 -7 -7 -7 -7 -7 -8 -8 -8 -8 -8 -8 -6
-11 -11 -11 -11 -11 -11 -11 -11 -11 -11 -11 -11 -11 -10 -10 -10 -10 -10 -11 -12 -12 -12 -12 -12 -12 -11 -12 -11 -11 -11 -10 -9 -9 -9 -8 -7 -7 -8 -8 -8 -7 -8 -8 -8 -8 -8 -6
-11 -11 -11 -11 -11 -11 -11 -11 -11 -11 -11 -11 -11 -11 -10 -10 -10 -11 -12 -12 -12 -12 -12 -13 -12 -12 -12 -11 -10 -10 -10 -10 -10 -10 -9 -9 -8 -9 -8 -8 -8 -8 -8 -8 -8 -8 -7
-11 -11 -11 -11 -11 -11 -11 -11 -11 -11 -11 -11 -11 -11 -11 -11 -11 -11 -12 -12 -12 -12 -12 -12 -12 -13 -12 -11 -11 -10 -10 -10 -10 -9 -9 -9 -9 -9 -8 -8 -8 -8 -8 -8 -7 -7 -7
-10 -10 -10 -11 -11 -11 -11 -11 -11 -11 -11 -11 -11 -11 -11 -11 -11 -11 -11 -12 -12 -13 -13 -13 -12 -12 -12 -12 -10 -10 -10 -10 -10 -9 -9 -9 -9 -9 -9 -9 -9 -8 -8 -8 -8 -8 -7
-10 -10 -10 -10 -11 -11 -11 -11 -11 -11 -11 -11 -11 -11 -11 -11 -11 -11 -12 -12 -13 -13 -13 -12 -12 -12 -12 -11 -11 -10 -10 -10 -10 -10 -10 -10 -10 -10 -10 -8 -9 -8 -8 -8 -8 -8 -8
-10 -10 -10 -10 -11 -11 -11 -11 -11 -10 -11 -11 -11 -11 -11 -11 -11 -11 -11 -12 -12 -12 -13 -13 -12 -12 -12 -12 -11 -11 -10 -10 -10 -10 -10 -10 -10 -10 -9 -8 -8 -8 -8 -8 -8 -8 -8
-10 -10 -10 -10 -10 -10 -11 -11 -11 -10 -11 -11 -11 -11 -11 -11 -11 -11 -11 -11 -11 -12 -12 -12 -12 -12 -12 -12 -11 -11 -11 -11 -11 -11 -10 -10 -10 -10 -9 -9 -8 -8 -8 -8 -8 -8 -8
-10 -10 -11 -11 -11 -11 -11 -11 -11 -10 -10 -10 -11 -11 -11 -11 -11 -11 -11 -11 -11 -11 -11 -12 -12 -13 -13 -13 -12 -11 -10 -11 -10 -11 -10 -10 -10 -10 -10 -9 -9 -9 -9 -8 -8 -8 -8
-11 -11 -11 -11 -11 -11 -11 -11 -11 -11 -10 -10 -10 -11 -11 -11 -10 -11 -11 -11 -11 -11 -11 -11 -12 -12 -13 -13 -12 -11 -11 -11 -11 -11 -10 -10 -10 -10 -10 -9 -10 -10 -9 -9 -8 -8 -8
Height
5855 5855 5855 5856 5857 5857 5858 5858 5859 5859 5860 5860 5861 5861 5862 5864 5865 5867 5869 5871 5873 5876 5878 5880 5882 5882 5883 5883 5885 5887 5889 5889 5892 5891 5892 5893 5894 5898 5898 5900 5902 5902 5901 5902 5902 5905 5905
5850 5851 5852 5852 5853 5853 5853 5854 5854 5854 5855 5855 5855 5856 5856 5857 5859 5861 5863 5865 5867 5870 5873 5876 5879 5881 5881 5881 5884 5884 5886 5888 5888 5889 5891 5891 5892 5895 5897 5898 5899 5901 5901 5901 5902 5903 5902
5845 5845 5847 5848 5848 5849 5849 5849 5849 5850 5850 5850 5850 5850 5850 5851 5853 5854 5856 5859 5861 5864 5868 5871 5875 5878 5879 5876 5881 5884 5885 5885 5886 5888 5889 5889 5890 5892 5895 5895 5896 5899 5899 5900 5901 5901 5903
5840 5840 5841 5843 5843 5844 5844 5844 5845 5845 5845 5845 5845 5845 5845 5846 5847 5848 5850 5852 5855 5858 5861 5866 5870 5874 5875 5876 5879 5880 5882 5884 5883 5885 5887 5888 5889 5891 5892 5896 5897 5897 5898 5900 5901 5903 5902
5834 5835 5836 5837 5838 5839 5839 5839 5839 5839 5838 5838 5839 5840 5841 5842 5842 5843 5844 5846 5848 5851 5855 5859 5864 5868 5870 5874 5874 5874 5878 5880 5881 5882 5884 5885 5889 5890 5892 5894 5897 5896 5898 5899 5900 5901 5902
5829 5830 5831 5832 5833 5834 5834 5834 5834 5833 5832 5833 5834 5836 5837 5837 5838 5839 5840 5841 5843 5845 5848 5852 5857 5863 5864 5868 5870 5872 5875 5877 5879 5879 5882 5885 5887 5889 5892 5894 5895 5894 5896 5897 5898 5900 5901
5823 5824 5825 5826 5827 5828 5829 5829 5829 5828 5828 5829 5830 5831 5832 5833 5834 5834 5836 5837 5840 5842 5842 5845 5850 5853 5859 5863 5868 5869 5872 5874 5877 5879 5882 5883 5887 5889 5891 5890 5892 5893 5895 5897 5897 5897 5900
5818 5819 5820 5821 5822 5823 5823 5823 5823 5823 5824 5825 5825 5826 5827 5828 5828 5829 5830 5832 5835 5837 5838 5839 5842 5847 5850 5853 5861 5864 5868 5872 5875 5877 5877 5882 5886 5887 5885 5888 5891 5894 5896 5896 5897 5895 5896
5813 5814 5816 5817 5817 5818 5818 5817 5817 5817 5818 5819 5820 5821 5821 5822 5823 5824 5825 5828 5828 5829 5831 5833 5834 5840 5842 5849 5853 5857 5863 5867 5871 5873 5876 5880 5881 5881 5883 5886 5890 5892 5894 5895 5895 5894 5896
5810 5811 5811 5812 5812 5812 5812 5812 5811 5811 5812 5813 5814 5815 5816 5816 5819 5819 5820 5821 5822 5822 5824 5829 5828 5831 5834 5842 5849 5851 5857 5862 5866 5871 5872 5876 5874 5879 5880 5882 5887 5891 5892 5891 5893 5894 5894
5806 5807 5807 5807 5806 5806 5806 5806 5806 5806 5807 5807 5808 5809 5809 5811 5812 5814 5814 5814 5816 5816 5817 5819 5820 5822 5825 5833 5842 5846 5850 5855 5861 5865 5869 5876 5873 5876 5878 5883 5885 5891 5890 5889 5888 5893 5894
5803 5803 5802 5802 5801 5801 5801 5801 5801 5801 5801 5802 5802 5803 5804 5805 5806 5807 5807 5808 5809 5810 5809 5809 5810 5813 5817 5826 5831 5836 5842 5849 5854 5858 5863 5866 5867 5869 5876 5880 5883 5884 5884 5886 5888 5890 5891
5799 5798 5798 5797 5797 5797 5796 5796 5796 5796 5796 5796 5797 5797 5798 5799 5800 5800 5800 5801 5802 5802 5803 5804 5806 5808 5809 5816 5822 5828 5834 5840 5846 5850 5860 5863 5864 5868 5871 5874 5878 5879 5881 5883 5885 5886 5890
5795 5794 5793 5793 5792 5792 5791 5792 5792 5791 5792 5791 5791 5791 5792 5792 5792 5792 5792 5794 5794 5795 5795 5798 5802 5804 5807 5809 5813 5819 5826 5833 5839 5847 5855 5857 5861 5866 5869 5872 5877 5877 5879 5880 5881 5883 5887
5792 5791 5790 5789 5788 5787 5787 5787 5787 5787 5787 5787 5786 5786 5786 5786 5786 5785 5786 5786 5788 5789 5790 5794 5798 5800 5802 5805 5808 5810 5819 5828 5834 5843 5850 5854 5859 5861 5864 5870 5872 5874 5874 5878 5879 5881 5882
5789 5787 5786 5785 5784 5784 5784 5783 5783 5783 5783 5782 5782 5782 5781 5781 5780 5780 5780 5781 5782 5783 5785 5790 5793 5796 5797 5798 5802 5807 5812 5823 5830 5838 5844 5850 5855 5856 5860 5864 5867 5869 5873 5874 5875 5877 5878
5786 5785 5783 5782 5781 5781 5780 5780 5779 5779 5779 5777 5777 5777 5777 5775 5775 5775 5775 5776 5776 5777 5780 5785 5789 5793 5795 5795 5797 5800 5808 5819 5824 5831 5839 5844 5848 5853 5855 5858 5863 5865 5867 5869 5872 5873 5874
5784 5783 5781 5780 5779 5778 5777 5776 5776 5775 5775 5774 5772 5773 5771 5770 5770 5769 5770 5771 5772 5773 5776 5780 5785 5790 5792 5791 5793 5796 5800 5809 5819 5825 5831 5839 5842 5846 5851 5855 5857 5859 5863 5865 5867 5870 5870
5783 5781 5780 5778 5777 5776 5775 5773 5772 5772 5771 5770 5769 5767 5766 5765 5764 5764 5765 5766 5768 5769 5773 5777 5781 5785 5787 5788 5792 5794 5799 5805 5813 5817 5826 5833 5835 5841 5847 5851 5854 5856 5860 5862 5863 5865 5866
5782 5780 5779 5777 5775 5774 5773 5771 5770 5769 5768 5768 5767 5764 5762 5759 5759 5760 5760 5760 5762 5765 5769 5774 5776 5779 5783 5786 5788 5791 5797 5803 5809 5814 5818 5825 5831 5837 5843 5850 5852 5855 5857 5858 5859 5861 5863
5782 5781 5779 5777 5775 5773 5771 5770 5768 5767 5765 5765 5763 5762 5759 5757 5756 5755 5755 5756 5759 5761 5766 5771 5772 5775 5778 5781 5783 5787 5791 5798 5805 5809 5813 5817 5823 5831 5840 5844 5845 5849 5851 5851 5853 5857 5856
5783 5781 5780 5777 5775 5773 5771 5769 5767 5765 5763 5762 5760 5758 5757 5754 5753 5752 5752 5753 5754 5758 5763 5766 5770 5771 5773 5778 5783 5785 5790 5795 5800 5805 5809 5812 5818 5824 5832 5837 5839 5842 5845 5847 5849 5850 5851
5784 5782 5780 5778 5775 5773 5770 5769 5766 5764 5762 5760 5758 5755 5754 5752 5750 5749 5748 5749 5752 5755 5759 5763 5767 5768 5774 5776 5770 5781 5788 5795 5799 5802 5805 5810 5814 5819 5826 5832 5835 5837 5840 5843 5843 5844 5846
5785 5783 5780 5778 5776 5773 5769 5767 5765 5763 5761 5759 5756 5754 5752 5749 5747 5746 5745 5745 5748 5752 5756 5758 5762 5764 5769 5772 5773 5779 5785 5789 5794 5798 5802 5806 5811 5815 5820 5824 5825 5832 5835 5836 5837 5839 5841
5784 5782 5779 5777 5774 5771 5768 5765 5763 5761 5759 5757 5755 5752 5750 5748 5745 5743 5743 5743 5744 5747 5752 5755 5758 5760 5763 5766 5772 5775 5782 5784 5788 5793 5798 5803 5806 5809 5812 5816 5821 5824 5827 5829 5831 5834 5835
5783 5780 5777 5774 5771 5768 5765 5762 5759 5758 5756 5754 5752 5750 5749 5746 5744 5741 5741 5741 5742 5744 5747 5750 5753 5756 5760 5762 5767 5771 5775 5779 5783 5787 5792 5798 5801 5804 5807 5810 5812 5816 5818 5822 5824 5826 5828
5779 5776 5773 5770 5767 5764 5762 5759 5757 5755 5754 5751 5749 5748 5746 5745 5742 5740 5739 5739 5740 5741 5742 5744 5747 5752 5753 5757 5763 5767 5770 5775 5779 5781 5787 5790 5793 5796 5800 5802 5805 5807 5809 5813 5818 5821 5818
5775 5772 5769 5767 5764 5762 5759 5756 5754 5752 5750 5748 5746 5744 5743 5742 5741 5739 5738 5737 5737 5737 5737 5741 5745 5744 5747 5752 5756 5762 5766 5769 5775 5777 5780 5785 5786 5789 5792 5795 5799 5801 5803 5807 5810 5810 5809
5771 5768 5766 5763 5761 5758 5756 5753 5750 5747 5746 5744 5742 5740 5739 5737 5738 5737 5735 5734 5734 5734 5736 5736 5738 5740 5741 5744 5748 5755 5760 5765 5767 5769 5775 5779 5779 5782 5786 5789 5790 5794 5797 5799 5801 5802 5802
Wind_Speed
20 20 19 18 16 15 14 14 15 16 17 18 19 21 23 26 28 29 29 29 29 26 22 19 14 11 11 14 15 16 19 22 20 21 19 19 20 14 14 14 16 12 11 8 12 11 9
21 22 21 19 18 16 15 14 15 16 18 18 19 19 21 23 25 29 31 32 32 30 27 23 19 14 12 16 12 14 15 17 21 22 21 21 20 18 15 16 15 14 11 12 10 7 5
23 23 23 22 21 19 17 16 17 19 20 20 20 19 19 19 22 25 29 33 34 34 32 28 24 19 15 21 12 12 13 16 19 19 20 21 20 19 15 17 14 15 14 6 5 3 4
24 25 25 24 23 21 20 19 20 21 21 21 21 19 17 17 17 20 25 30 35 37 36 33 29 24 22 19 13 15 16 16 19 19 20 20 19 18 18 13 14 15 10 6 3 3 5
24 25 25 24 24 23 22 22 22 22 23 22 19 17 16 17 18 18 18 24 30 36 39 37 34 30 30 22 22 22 20 22 20 20 20 19 17 18 14 12 13 10 7 7 2 5 8
24 23 24 24 23 23 23 23 22 22 20 19 17 17 17 17 18 19 20 19 23 30 35 39 38 36 35 31 27 24 19 20 21 22 21 17 17 17 12 11 6 12 15 9 6 4 6
22 22 22 22 22 22 22 23 21 19 17 18 18 19 19 19 19 19 21 20 20 21 29 36 40 39 36 34 30 29 22 20 21 22 20 17 16 13 10 13 17 15 11 10 10 8 1
19 20 20 20 21 22 22 22 20 18 18 21 21 21 22 22 21 21 22 23 21 18 19 28 37 39 42 40 35 34 28 23 19 17 21 16 7 11 23 22 17 12 12 9 3 1 6
17 17 17 18 20 21 22 21 20 20 21 22 23 23 23 23 22 19 17 16 19 24 24 22 26 35 44 44 39 38 33 27 24 21 20 13 16 23 24 24 21 18 13 8 5 5 8
15 15 16 18 20 21 21 21 20 20 21 24 23 23 22 24 22 20 19 19 18 21 24 23 25 27 43 41 41 39 37 33 29 22 21 21 26 23 24 27 27 20 16 12 7 5 15
14 15 16 17 18 19 18 18 18 18 18 21 23 23 22 23 23 22 22 23 21 22 25 25 28 26 37 43 38 40 39 37 30 28 25 18 26 22 22 22 27 17 18 14 8 10 15
13 15 15 15 15 16 16 16 16 16 17 17 21 22 24 23 23 24 25 25 25 25 25 24 25 24 34 33 38 41 41 39 35 35 29 25 28 27 18 26 24 27 23 21 13 16 17
13 13 13 14 13 14 14 14 14 15 17 17 19 21 23 24 24 26 26 26 27 25 22 23 24 24 31 32 33 40 42 42 41 40 30 27 27 26 25 31 29 31 26 22 18 25 14
12 12 13 13 13 13 13 13 13 15 15 16 17 20 22 23 25 25 24 25 24 20 23 26 24 25 29 32 32 38 41 43 42 38 32 31 27 22 23 29 29 32 28 22 21 22 12
10 10 10 11 11 11 12 12 13 14 13 14 15 16 17 18 21 22 21 20 16 18 26 24 23 24 28 31 35 39 40 39 41 38 36 31 22 20 21 28 32 31 29 26 23 17 15
8 9 10 10 9 9 10 11 12 13 14 16 17 16 17 18 18 19 16 15 17 23 27 25 29 25 24 28 31 35 38 37 39 37 36 32 24 22 23 33 37 30 26 27 24 20 19
7 7 7 7 8 9 10 11 12 12 13 16 17 17 17 17 16 16 17 18 24 30 33 29 30 29 24 24 32 27 34 33 35 34 37 34 30 26 29 30 33 32 29 26 21 21 20
7 7 7 8 8 9 11 11 12 12 13 14 16 16 17 17 17 17 19 23 28 35 36 32 28 24 28 27 31 37 35 33 32 36 38 36 33 26 30 28 33 36 24 13 19 20 20
7 6 7 8 8 8 9 9 9 9 10 11 13 15 16 18 17 14 14 21 25 35 38 36 31 31 27 26 27 34 37 34 31 37 38 36 36 29 31 31 27 25 20 11 3 17 21
8 7 7 7 7 7 8 8 6 6 7 9 10 13 11 13 13 14 14 19 24 36 39 38 31 34 30 28 25 31 36 32 31 36 36 37 34 32 30 26 28 24 20 14 11 15 15
8 9 9 9 9 8 7 7 7 7 9 10 10 10 12 14 10 12 13 18 26 36 40 34 36 33 35 31 28 24 25 30 32 32 34 39 38 34 31 29 29 27 26 22 20 20 26
9 9 9 10 11 10 10 10 10 8 7 8 9 8 8 9 8 10 8 16 26 33 36 37 31 36 36 32 28 28 34 35 34 33 35 33 32 33 34 33 33 31 30 29 27 28 30
9 10 12 12 12 12 11 11 11 11 6 7 9 9 8 7 6 9 9 13 24 25 32 38 33 38 32 36 33 31 31 33 32 35 37 31 29 25 36 37 37 34 33 33 33 32 32
9 10 12 13 14 15 14 12 11 10 9 8 8 8 8 6 7 9 12 14 21 20 29 39 37 38 25 37 24 27 31 34 33 34 34 32 25 24 29 39 44 39 35 36 36 35 33
11 13 15 16 16 16 16 15 14 12 10 8 8 8 8 5 9 8 12 13 21 25 27 38 41 36 28 30 31 36 36 35 34 32 31 31 27 29 32 40 41 43 44 42 40 39 38
15 17 18 19 18 17 15 15 14 12 12 11 9 8 8 6 6 8 5 9 15 23 27 34 37 42 41 32 26 32 40 40 38 39 35 35 34 35 38 36 38 39 45 47 47 46 45
18 20 21 19 16 16 14 14 12 13 11 12 11 10 8 5 5 7 8 9 13 14 24 38 36 35 41 37 37 39 37 39 32 40 41 42 40 39 36 29 33 34 38 41 42 47 52
20 21 18 17 16 15 15 14 13 14 13 12 13 13 12 11 6 7 7 10 11 12 22 32 34 34 34 36 31 38 49 48 39 39 40 37 43 40 37 35 35 33 33 36 39 43 45
21 19 18 18 17 16 17 16 15 15 14 13 13 15 14 14 11 8 8 8 8 10 15 23 30 30 31 29 27 27 39 35 36 49 42 42 38 32 37 36 37 37 38 38 39 41 44
Wind_Direction
256 251 250 248 243 245 252 258 262 264 263 261 257 252 245 239 238 238 236 233 233 235 239 239 236 232 231 229 224 219 218 221 220 228 235 241 248 241 236 233 219 217 206 234 268 272 330
257 250 246 246 247 249 255 265 271 272 272 270 267 260 253 246 241 238 237 234 231 231 232 234 233 229 226 234 224 218 216 216 222 225 230 239 248 250 244 243 249 277 227 250 273 319 28
259 253 247 245 246 249 258 265 272 274 273 271 272 268 262 254 248 242 238 236 232 230 229 228 227 227 224 237 228 222 210 207 217 228 232 236 243 248 246 255 267 295 286 258 278 184 58
261 256 248 247 249 253 260 266 272 275 271 269 267 263 262 263 260 253 244 239 235 231 229 227 225 222 221 233 218 211 207 207 216 220 227 235 239 247 254 259 276 294 293 218 220 245 15
262 257 250 248 250 253 259 267 275 276 274 266 255 253 257 263 266 264 256 246 240 235 231 229 225 220 223 219 211 212 205 202 211 221 222 226 234 243 251 264 277 285 198 182 134 47 27
262 255 248 248 248 253 261 267 273 276 269 255 242 252 255 261 265 264 261 258 247 241 234 230 227 223 222 221 223 228 216 206 206 224 229 231 232 238 240 244 222 205 179 144 129 224 18
260 255 247 247 250 257 263 270 272 267 257 243 246 253 253 259 264 267 258 257 257 250 241 232 227 226 223 226 220 228 224 222 212 222 229 233 230 236 209 185 198 181 161 146 143 160 352
254 250 247 247 253 260 265 268 268 262 249 246 250 254 253 254 263 266 263 258 257 252 250 244 233 229 223 220 218 224 227 231 231 224 231 221 207 207 204 187 188 179 167 146 116 49 302
248 245 248 252 258 263 265 265 265 262 252 250 254 255 253 253 260 257 263 266 262 255 246 248 240 230 228 222 217 219 223 226 229 226 226 206 209 209 211 190 183 174 176 180 174 298 268
244 247 253 259 264 267 267 265 261 261 258 254 257 256 251 252 252 251 258 263 265 258 252 242 246 229 227 224 221 220 219 220 225 224 223 202 224 221 219 201 199 194 184 194 244 293 303
251 257 262 266 270 269 268 264 258 258 265 260 257 257 250 256 250 252 258 261 260 260 263 247 244 238 230 220 217 220 218 217 218 224 229 211 227 229 228 214 207 199 192 205 195 243 270
262 268 270 270 273 272 270 266 260 261 268 266 256 254 251 257 256 257 260 260 264 264 257 241 237 230 223 220 216 215 215 216 211 223 219 210 217 221 217 196 203 183 194 197 212 227 248
273 275 276 275 274 270 266 265 266 267 270 270 262 256 255 259 259 260 263 262 263 263 238 235 235 229 219 208 216 215 213 213 212 217 216 219 223 223 215 207 204 206 194 198 214 238 249
285 283 279 278 275 272 268 266 269 271 271 270 267 262 260 259 261 263 265 264 262 242 228 229 226 230 224 209 202 213 212 210 210 213 210 220 223 224 226 219 213 215 201 209 221 238 230
294 291 291 286 280 272 266 267 269 272 269 271 272 270 270 268 267 266 266 261 237 220 218 212 198 205 219 215 205 208 208 211 211 212 210 215 216 224 224 216 220 214 207 214 226 223 235
307 306 303 295 284 276 274 275 271 271 269 270 271 272 273 279 274 271 252 230 213 202 210 212 200 195 189 197 206 209 207 206 207 212 210 214 208 215 210 216 223 215 218 224 233 237 236
313 316 318 306 294 294 290 283 279 276 275 275 274 275 276 280 270 258 240 225 210 202 204 212 211 203 189 190 199 203 204 202 206 208 215 210 209 212 208 208 213 212 214 225 226 233 239
330 326 322 315 310 303 296 290 283 280 278 280 283 278 280 276 268 249 239 242 230 219 208 205 211 204 205 194 201 203 200 195 206 207 210 213 211 208 210 204 206 215 220 213 243 244 252
348 346 332 319 315 316 318 311 294 283 282 281 289 291 286 282 266 245 258 246 225 220 208 204 206 211 205 192 197 206 201 189 195 207 206 209 212 203 206 211 201 201 193 189 216 252 246
25 21 7 346 333 323 324 326 320 304 290 290 297 296 299 315 265 265 242 235 219 213 213 205 210 211 209 200 197 201 203 188 194 208 200 207 214 209 218 215 217 214 203 180 210 247 238
37 33 27 19 14 4 346 333 323 312 303 299 298 305 302 302 304 280 242 227 213 211 214 209 218 219 214 203 208 197 195 186 192 180 189 202 210 207 208 211 219 217 216 205 218 230 233
37 33 26 18 14 12 10 8 358 323 307 316 320 313 315 308 293 279 272 230 212 213 213 214 220 234 228 196 202 184 169 175 180 180 189 198 206 211 201 210 219 220 220 220 227 234 236
38 32 26 19 9 2 1 360 359 5 338 334 344 328 324 322 271 240 249 237 218 212 212 218 225 229 239 204 195 178 179 184 185 192 194 202 209 209 212 212 218 227 224 229 237 242 246
14 8 1 355 354 353 345 344 346 352 359 348 338 339 336 315 283 248 223 216 221 215 218 221 228 236 238 237 191 184 191 191 197 201 203 208 209 216 226 221 223 222 223 232 239 245 250
349 343 340 337 336 332 333 329 328 333 336 342 343 336 339 323 283 275 241 225 221 219 218 225 229 238 236 238 194 189 197 201 206 209 214 216 215 223 234 227 228 227 228 231 235 243 251
328 327 326 327 327 327 325 322 321 323 325 318 325 330 340 344 294 293 253 240 225 214 213 223 233 239 243 245 241 211 198 207 210 212 217 223 227 231 236 238 242 236 235 235 237 243 247
318 320 321 325 326 325 321 317 311 318 324 317 310 311 321 348 264 280 278 233 217 218 218 220 228 235 241 245 252 237 224 213 218 220 219 221 226 238 240 239 239 240 237 233 235 242 247
314 317 322 323 324 325 323 319 312 309 313 312 309 299 293 301 301 290 279 264 255 223 204 211 228 230 236 235 236 230 224 227 221 224 223 222 227 229 237 241 243 239 239 236 237 240 245
314 317 319 321 320 322 322 319 314 311 313 313 307 294 291 288 283 273 269 258 256 251 233 211 214 225 236 240 239 238 233 243 243 223 231 240 240 223 235 245 244 245 245 244 243 242 246